Date,TemperatureHighF,TemperatureAvgF,TemperatureLowF,DewpointHighF,DewpointAvgF,DewpointLowF,HumidityHigh,HumidityAvg,HumidityLow,PressureMaxIn,PressureMinIn,WindSpeedMaxMPH,WindSpeedAvgMPH,GustSpeedMaxMPH,PrecipitationSumIn
2013-2-1,28.4,22.9,15.5,23.0,10.8,4.0,92,61,46,30.38,29.83,15,4,28,0.00
2013-2-2,25.4,19.7,12.2,23.0,12.5,5.0,94,75,53,30.39,30.04,8,2,13,0.00
2013-2-3,30.9,25.7,16.6,27.0,22.4,15.0,94,87,65,30.03,29.84,9,1,20,0.05
2013-2-4,34.0,26.9,19.3,22.0,15.8,10.0,75,63,49,30.10,29.91,11,2,25,0.00
2013-2-5,36.2,30.5,26.0,30.0,25.7,20.0,95,82,70,29.95,29.87,0,0,3,0.00
2013-2-6,40.3,32.9,26.5,31.0,25.4,19.0,95,75,56,30.36,29.95,11,2,20,0.01
2013-2-7,34.7,29.8,21.7,28.0,22.0,18.0,88,74,56,30.46,30.23,6,0,10,0.00
2013-2-8,37.3,33.8,30.4,36.0,30.5,22.0,96,88,70,30.23,29.77,20,2,27,0.15
2013-2-9,37.6,29.8,24.9,22.0,17.2,14.0,73,60,44,30.40,29.93,8,2,31,0.00
2013-2-10,43.2,30.3,16.0,23.0,16.8,14.0,90,60,32,30.49,30.26,5,1,11,0.00
2013-2-11,50.8,41.7,32.9,48.0,39.0,25.0,98,91,53,30.25,29.70,8,2,21,0.35
2013-2-12,50.7,42.3,28.5,34.0,29.0,26.0,89,61,44,30.00,29.82,18,3,25,0.00
2013-2-13,41.5,32.3,23.8,32.0,27.6,22.0,97,84,62,29.97,29.68,4,0,8,0.05
2013-2-14,46.6,34.8,27.3,33.0,29.4,25.0,97,82,55,30.02,29.78,7,1,10,0.20
2013-2-15,55.3,38.0,25.7,37.0,30.8,25.0,97,79,44,30.04,29.92,12,1,15,0.16
2013-2-16,34.4,31.7,28.6,32.0,27.5,18.0,98,85,61,30.02,29.84,4,0,10,0.11
2013-2-17,29.9,24.6,20.9,19.0,12.8,7.0,79,61,46,30.19,29.84,18,4,33,0.01
2013-2-18,39.5,26.6,15.6,16.0,10.3,6.0,68,52,32,30.38,30.18,6,2,14,0.00
2013-2-19,42.6,35.1,23.9,40.0,28.5,16.0,95,78,56,30.17,29.71,15,4,21,0.16
2013-2-20,33.8,28.1,22.2,22.0,14.9,9.0,65,58,50,30.16,29.85,19,6,24,0.00
2013-2-21,35.3,27.0,20.2,18.0,14.3,11.0,69,60,48,30.35,30.12,13,2,22,0.00
2013-2-22,31.4,28.4,25.7,28.0,21.9,16.0,93,77,65,30.40,30.24,5,0,10,0.00
2013-2-23,45.4,36.5,29.5,44.0,35.7,28.0,98,96,92,30.23,29.83,2,0,3,0.03
2013-2-24,47.6,38.0,28.2,39.0,30.2,21.0,98,76,48,30.11,29.80,17,2,26,0.00
2013-2-25,45.6,33.7,25.7,28.0,22.7,19.0,89,66,46,30.23,30.11,5,0,8,0.00
2013-2-26,40.3,30.7,24.0,39.0,27.4,22.0,96,88,71,30.24,29.65,9,1,17,0.50
2013-2-27,54.0,44.1,37.2,42.0,37.3,33.0,98,79,52,29.69,29.54,15,3,23,0.07
2013-2-28,43.5,39.7,36.2,35.0,30.4,26.0,85,70,52,29.72,29.64,12,4,19,0.00